Year,Month,Day,Hour,Minute,Value (Times are PST for temperature in C)
2017,11,14,11,26,7.60
2017,11,14,11,27,7.60
2017,11,14,11,28,7.60
2017,11,14,11,29,7.60
2017,11,14,11,30,7.60
2017,11,14,11,31,7.50
2017,11,14,11,32,7.50
2017,11,14,11,33,7.50
2017,11,14,11,34,7.50
2017,11,14,11,35,7.50
2017,11,14,11,36,7.50
2017,11,14,11,37,7.40
2017,11,14,11,38,7.40
2017,11,14,11,39,7.40
2017,11,14,11,40,7.40
2017,11,14,11,41,7.40
2017,11,14,11,42,7.40
2017,11,14,11,43,7.40
2017,11,14,11,44,7.30
2017,11,14,11,45,7.30
2017,11,14,11,46,7.30
2017,11,14,11,47,7.30
2017,11,14,11,48,7.30
2017,11,14,11,49,7.30
2017,11,14,11,50,7.30
2017,11,14,11,51,7.30
2017,11,14,11,52,7.30
2017,11,14,11,53,7.30
2017,11,14,11,54,7.30
2017,11,14,11,55,7.30
2017,11,14,11,56,7.30
2017,11,14,11,57,7.30
2017,11,14,11,58,7.30
2017,11,14,11,59,7.30
2017,11,14,12,00,7.30
2017,11,14,12,01,7.20
2017,11,14,12,02,7.20
2017,11,14,12,03,7.20
2017,11,14,12,04,7.20
2017,11,14,12,05,7.20
2017,11,14,12,06,7.20
2017,11,14,12,07,7.20
2017,11,14,12,08,7.20
2017,11,14,12,09,7.30
2017,11,14,12,10,7.30
2017,11,14,12,11,7.30
2017,11,14,12,12,7.30
2017,11,14,12,13,7.30
2017,11,14,12,14,7.30
2017,11,14,12,15,7.30
2017,11,14,12,16,7.30
2017,11,14,12,17,7.30
2017,11,14,12,18,7.30
2017,11,14,12,19,7.30
2017,11,14,12,20,7.30
2017,11,14,12,21,7.20
2017,11,14,12,22,7.20
2017,11,14,12,23,7.20
2017,11,14,12,24,7.20
2017,11,14,12,25,7.20
2017,11,14,12,26,7.30
2017,11,14,12,27,7.30
2017,11,14,12,28,7.30
2017,11,14,12,29,7.30
2017,11,14,12,30,7.30
2017,11,14,12,31,7.30
2017,11,14,12,32,7.30
2017,11,14,12,33,7.30
2017,11,14,12,34,7.30
2017,11,14,12,35,7.30
2017,11,14,12,36,7.30
2017,11,14,12,37,7.30
2017,11,14,12,38,7.30
2017,11,14,12,39,7.30
2017,11,14,12,40,7.30
2017,11,14,12,41,7.30
2017,11,14,12,42,7.30
2017,11,14,12,43,7.20
2017,11,14,12,44,7.20
2017,11,14,12,45,7.20
2017,11,14,12,46,7.30
2017,11,14,12,47,7.30
2017,11,14,12,48,7.30
2017,11,14,12,49,7.30
2017,11,14,12,50,7.30
2017,11,14,12,51,7.20
2017,11,14,12,52,7.30
2017,11,14,12,53,7.30
2017,11,14,12,54,7.30
2017,11,14,12,55,7.30
2017,11,14,12,56,7.30
2017,11,14,12,57,7.30
2017,11,14,12,58,7.30
2017,11,14,12,59,7.30
2017,11,14,13,00,7.30
2017,11,14,13,01,7.40
2017,11,14,13,02,7.40
2017,11,14,13,03,7.40
2017,11,14,13,04,7.40
2017,11,14,13,05,7.40
2017,11,14,13,06,7.40
2017,11,14,13,07,7.40
2017,11,14,13,08,7.40
2017,11,14,13,09,7.40
2017,11,14,13,10,7.40
2017,11,14,13,11,7.40
2017,11,14,13,12,7.30
2017,11,14,13,13,7.30
2017,11,14,13,14,7.30
2017,11,14,13,15,7.40
2017,11,14,13,16,7.40
2017,11,14,13,17,7.40
2017,11,14,13,18,7.40
2017,11,14,13,19,7.40
2017,11,14,13,20,7.40
2017,11,14,13,21,7.40
2017,11,14,13,22,7.40
2017,11,14,13,23,7.40
2017,11,14,13,24,7.40
2017,11,14,13,25,7.40
2017,11,14,13,26,7.40
2017,11,14,13,27,7.40
2017,11,14,13,28,7.40
2017,11,14,13,29,7.40
2017,11,14,13,30,7.40
2017,11,14,13,31,7.40
2017,11,14,13,32,7.40
2017,11,14,13,33,7.40
2017,11,14,13,34,7.40
2017,11,14,13,35,7.40
2017,11,14,13,36,7.50
2017,11,14,13,37,7.50
2017,11,14,13,38,7.50
2017,11,14,13,39,7.50
2017,11,14,13,40,7.50
2017,11,14,13,41,7.50
2017,11,14,13,42,7.50
2017,11,14,13,43,7.50
2017,11,14,13,44,7.50
2017,11,14,13,45,7.50
2017,11,14,13,46,7.50
2017,11,14,13,47,7.60
2017,11,14,13,48,7.60
2017,11,14,13,49,7.60
2017,11,14,13,50,7.60
2017,11,14,13,51,7.60
2017,11,14,13,52,7.60
2017,11,14,13,53,7.60
2017,11,14,13,54,7.60
2017,11,14,13,55,7.60
2017,11,14,13,56,7.60
2017,11,14,13,57,7.60
2017,11,14,13,58,7.60
2017,11,14,13,59,7.60
2017,11,14,14,00,7.60
2017,11,14,14,01,7.60
2017,11,14,14,02,7.60
2017,11,14,14,03,7.70
2017,11,14,14,04,7.70
2017,11,14,14,05,7.70
2017,11,14,14,06,7.70
2017,11,14,14,07,7.70
2017,11,14,14,08,7.70
2017,11,14,14,09,7.70
2017,11,14,14,10,7.70
2017,11,14,14,11,7.80
2017,11,14,14,12,7.80
2017,11,14,14,13,7.80
2017,11,14,14,14,7.80
2017,11,14,14,15,7.80
2017,11,14,14,16,7.80
2017,11,14,14,17,7.80
2017,11,14,14,18,7.80
2017,11,14,14,19,7.80
2017,11,14,14,20,7.80
2017,11,14,14,21,7.80
2017,11,14,14,22,7.80
2017,11,14,14,23,7.80
2017,11,14,14,24,7.80
2017,11,14,14,25,7.80
2017,11,14,14,26,7.80
2017,11,14,14,27,7.80
2017,11,14,14,28,7.80
2017,11,14,14,29,7.80
2017,11,14,14,30,7.80
2017,11,14,14,31,7.80
2017,11,14,14,32,7.80
2017,11,14,14,33,7.80
2017,11,14,14,34,7.80
2017,11,14,14,35,7.80
2017,11,14,14,36,7.80
2017,11,14,14,37,7.80
2017,11,14,14,38,7.80
2017,11,14,14,39,7.80
2017,11,14,14,40,7.80
2017,11,14,14,41,7.80
2017,11,14,14,42,7.80
2017,11,14,14,43,7.80
2017,11,14,14,44,7.70
2017,11,14,14,45,7.70
2017,11,14,14,46,7.60
2017,11,14,14,47,7.60
2017,11,14,14,48,7.60
2017,11,14,14,49,7.60
2017,11,14,14,50,7.60
2017,11,14,14,51,7.60
2017,11,14,14,52,7.50
2017,11,14,14,53,7.50
2017,11,14,14,54,7.50
2017,11,14,14,55,7.50
2017,11,14,14,56,7.50
2017,11,14,14,57,7.40
2017,11,14,14,58,7.40
2017,11,14,14,59,7.40
2017,11,14,15,00,7.40
2017,11,14,15,01,7.40
2017,11,14,15,02,7.50
2017,11,14,15,03,7.50
2017,11,14,15,04,7.50
2017,11,14,15,05,7.60
2017,11,14,15,06,7.60
2017,11,14,15,07,7.60
2017,11,14,15,08,7.60
2017,11,14,15,09,7.60
2017,11,14,15,10,7.60
2017,11,14,15,11,7.60
2017,11,14,15,12,7.60
2017,11,14,15,13,7.60
2017,11,14,15,14,7.60
2017,11,14,15,15,7.60
2017,11,14,15,16,7.60
2017,11,14,15,17,7.60
2017,11,14,15,18,7.60
2017,11,14,15,19,7.60
2017,11,14,15,20,7.60
2017,11,14,15,21,7.60
2017,11,14,15,22,7.60
2017,11,14,15,23,7.60
2017,11,14,15,24,7.60
2017,11,14,15,25,7.70
2017,11,14,15,26,7.70
2017,11,14,15,27,7.70
2017,11,14,15,28,7.70
2017,11,14,15,29,7.70
2017,11,14,15,30,7.70
2017,11,14,15,31,7.70
2017,11,14,15,32,7.70
2017,11,14,15,33,7.70
2017,11,14,15,34,7.70
2017,11,14,15,35,7.70
2017,11,14,15,36,7.70
2017,11,14,15,37,7.70
2017,11,14,15,38,7.70
2017,11,14,15,39,7.70
2017,11,14,15,40,7.70
2017,11,14,15,41,7.70
2017,11,14,15,42,7.70
2017,11,14,15,43,7.70
2017,11,14,15,44,7.70
2017,11,14,15,45,7.70
2017,11,14,15,46,7.80
2017,11,14,15,47,7.80
2017,11,14,15,48,7.80
2017,11,14,15,49,7.80
2017,11,14,15,50,7.80
2017,11,14,15,51,7.80
2017,11,14,15,52,7.80
2017,11,14,15,53,7.80
2017,11,14,15,54,7.80
2017,11,14,15,55,7.70
2017,11,14,15,56,7.70
2017,11,14,15,57,7.70
2017,11,14,15,58,7.70
2017,11,14,15,59,7.70
2017,11,14,16,00,7.70
2017,11,14,16,01,7.70
2017,11,14,16,02,7.70
2017,11,14,16,03,7.70
2017,11,14,16,04,7.70
2017,11,14,16,05,7.70
2017,11,14,16,06,7.70
2017,11,14,16,07,7.80
2017,11,14,16,08,7.80
2017,11,14,16,09,7.80
2017,11,14,16,10,7.80
2017,11,14,16,11,7.80
2017,11,14,16,12,7.80
2017,11,14,16,13,7.80
2017,11,14,16,14,7.80
2017,11,14,16,15,7.80
2017,11,14,16,16,7.80
2017,11,14,16,17,7.80
2017,11,14,16,18,7.80
2017,11,14,16,19,7.80
2017,11,14,16,20,7.80
2017,11,14,16,21,7.80
2017,11,14,16,22,7.80
2017,11,14,16,23,7.80
2017,11,14,16,24,7.80
2017,11,14,16,25,7.80
2017,11,14,16,26,7.80
2017,11,14,16,27,7.80
2017,11,14,16,28,7.80
2017,11,14,16,29,7.80
2017,11,14,16,30,7.80
2017,11,14,16,31,7.90
2017,11,14,16,32,7.90
2017,11,14,16,33,7.90
2017,11,14,16,34,7.90
2017,11,14,16,35,7.90
2017,11,14,16,36,7.90
2017,11,14,16,37,7.90
2017,11,14,16,38,7.90
2017,11,14,16,39,7.90
2017,11,14,16,40,7.90
2017,11,14,16,41,7.90
2017,11,14,16,42,7.90
2017,11,14,16,43,7.90
2017,11,14,16,44,7.90
2017,11,14,16,45,7.90
2017,11,14,16,46,7.90
2017,11,14,16,47,7.90
2017,11,14,16,48,7.90
2017,11,14,16,49,7.90
2017,11,14,16,50,7.90
2017,11,14,16,51,7.90
2017,11,14,16,52,7.90
2017,11,14,16,53,7.90
2017,11,14,16,54,7.90
2017,11,14,16,55,7.90
2017,11,14,16,56,7.90
2017,11,14,16,57,7.80
2017,11,14,16,58,7.80
2017,11,14,16,59,7.80
2017,11,14,17,00,7.90
2017,11,14,17,01,7.90
2017,11,14,17,02,7.90
2017,11,14,17,03,7.90
2017,11,14,17,04,7.90
2017,11,14,17,05,7.90
2017,11,14,17,06,7.90
2017,11,14,17,07,7.90
2017,11,14,17,08,7.90
2017,11,14,17,09,7.90
2017,11,14,17,10,7.90
2017,11,14,17,11,7.90
2017,11,14,17,12,7.90
2017,11,14,17,13,7.90
2017,11,14,17,14,7.90
2017,11,14,17,15,7.90
2017,11,14,17,16,7.90
2017,11,14,17,17,7.90
2017,11,14,17,18,7.90
2017,11,14,17,19,7.90
2017,11,14,17,20,7.90
2017,11,14,17,21,7.90
2017,11,14,17,22,7.90
2017,11,14,17,23,7.90
2017,11,14,17,24,7.90
2017,11,14,17,25,7.90
2017,11,14,17,26,7.90
2017,11,14,17,27,7.90
2017,11,14,17,28,7.90
2017,11,14,17,29,7.90
2017,11,14,17,30,7.90
2017,11,14,17,31,7.90
2017,11,14,17,32,7.90
2017,11,14,17,33,7.90
2017,11,14,17,34,7.90
2017,11,14,17,35,7.90
2017,11,14,17,36,7.90
2017,11,14,17,37,7.90
2017,11,14,17,38,7.90
2017,11,14,17,39,7.90
2017,11,14,17,40,7.90
2017,11,14,17,41,7.90
2017,11,14,17,42,7.90
2017,11,14,17,43,7.90
2017,11,14,17,44,7.90
2017,11,14,17,45,7.90
2017,11,14,17,46,7.90
2017,11,14,17,47,7.90
2017,11,14,17,48,7.90
2017,11,14,17,49,7.90
2017,11,14,17,50,7.90
2017,11,14,17,51,7.90
2017,11,14,17,52,7.90
2017,11,14,17,53,7.90
2017,11,14,17,54,7.90
2017,11,14,17,55,7.90
2017,11,14,17,56,7.90
2017,11,14,17,57,7.90
2017,11,14,17,58,7.90
2017,11,14,17,59,7.90
2017,11,14,18,00,7.90
2017,11,14,18,01,7.90
2017,11,14,18,02,7.90
2017,11,14,18,03,7.90
2017,11,14,18,04,7.90
2017,11,14,18,05,7.90
2017,11,14,18,06,7.90
2017,11,14,18,07,7.90
2017,11,14,18,08,7.90
2017,11,14,18,09,7.90
2017,11,14,18,10,7.90
2017,11,14,18,11,7.90
2017,11,14,18,12,7.90
2017,11,14,18,13,7.90
2017,11,14,18,14,7.90
2017,11,14,18,15,7.90
2017,11,14,18,16,7.90
2017,11,14,18,17,7.90
2017,11,14,18,18,7.90
2017,11,14,18,19,7.90
2017,11,14,18,20,7.90
2017,11,14,18,21,7.90
2017,11,14,18,22,7.90
2017,11,14,18,23,7.90
2017,11,14,18,24,7.90
2017,11,14,18,25,7.90
2017,11,14,18,26,7.80
2017,11,14,18,27,7.80
2017,11,14,18,28,7.80
2017,11,14,18,29,7.80
2017,11,14,18,30,7.80
2017,11,14,18,31,7.80
2017,11,14,18,32,7.80
2017,11,14,18,33,7.80
2017,11,14,18,34,7.80
2017,11,14,18,35,7.80
2017,11,14,18,36,7.80
2017,11,14,18,37,7.80
2017,11,14,18,38,7.80
2017,11,14,18,39,7.80
2017,11,14,18,40,7.80
2017,11,14,18,41,7.80
2017,11,14,18,42,7.80
2017,11,14,18,43,7.80
2017,11,14,18,44,7.80
2017,11,14,18,45,7.80
2017,11,14,18,46,7.80
2017,11,14,18,47,7.70
2017,11,14,18,48,7.70
2017,11,14,18,49,7.70
2017,11,14,18,50,7.70
2017,11,14,18,51,7.70
2017,11,14,18,52,7.70
2017,11,14,18,53,7.70
2017,11,14,18,54,7.70
2017,11,14,18,55,7.60
2017,11,14,18,56,7.60
2017,11,14,18,57,7.60
2017,11,14,18,58,7.60
2017,11,14,18,59,7.60
2017,11,14,19,00,7.60
2017,11,14,19,01,7.60
2017,11,14,19,02,7.60
2017,11,14,19,03,7.60
2017,11,14,19,04,7.60
2017,11,14,19,05,7.60
2017,11,14,19,06,7.60
2017,11,14,19,07,7.60
2017,11,14,19,08,7.60
2017,11,14,19,09,7.60
2017,11,14,19,10,7.60
2017,11,14,19,11,7.60
2017,11,14,19,12,7.60
2017,11,14,19,13,7.60
2017,11,14,19,14,7.60
2017,11,14,19,15,7.60
2017,11,14,19,16,7.60
2017,11,14,19,17,7.60
2017,11,14,19,18,7.60
2017,11,14,19,19,7.60
2017,11,14,19,20,7.60
2017,11,14,19,21,7.50
2017,11,14,19,22,7.60
2017,11,14,19,23,7.60
2017,11,14,19,24,7.60
2017,11,14,19,25,7.60
2017,11,14,19,26,7.60
2017,11,14,19,27,7.70
2017,11,14,19,28,7.70
2017,11,14,19,29,7.70
2017,11,14,19,30,7.70
2017,11,14,19,31,7.80
2017,11,14,19,32,7.80
2017,11,14,19,33,7.80
2017,11,14,19,34,7.80
2017,11,14,19,35,7.80
2017,11,14,19,36,7.80
2017,11,14,19,37,7.80
2017,11,14,19,38,7.80
2017,11,14,19,39,7.80
2017,11,14,19,40,7.80
2017,11,14,19,41,7.80
2017,11,14,19,42,7.80
2017,11,14,19,43,7.80
2017,11,14,19,44,7.90
2017,11,14,19,45,7.90
2017,11,14,19,46,7.90
2017,11,14,19,47,8.00
2017,11,14,19,48,8.00
2017,11,14,19,49,8.00
2017,11,14,19,50,8.10
2017,11,14,19,51,8.10
2017,11,14,19,52,8.10
2017,11,14,19,53,8.10
2017,11,14,19,54,8.10
2017,11,14,19,55,8.10
2017,11,14,19,56,8.10
2017,11,14,19,57,8.10
2017,11,14,19,58,8.10
2017,11,14,19,59,8.20
2017,11,14,20,00,8.20
2017,11,14,20,01,8.20
2017,11,14,20,02,8.20
2017,11,14,20,03,8.20
2017,11,14,20,04,8.20
2017,11,14,20,05,8.20
2017,11,14,20,06,8.20
2017,11,14,20,07,8.20
2017,11,14,20,08,8.20
2017,11,14,20,09,8.20
2017,11,14,20,10,8.20
2017,11,14,20,11,8.20
2017,11,14,20,12,8.20
2017,11,14,20,13,8.20
2017,11,14,20,14,8.20
2017,11,14,20,15,8.20
2017,11,14,20,16,8.20
2017,11,14,20,17,8.20
2017,11,14,20,18,8.20
2017,11,14,20,19,8.20
2017,11,14,20,20,8.20
2017,11,14,20,21,8.20
2017,11,14,20,22,8.20
2017,11,14,20,23,8.20
2017,11,14,20,24,8.20
2017,11,14,20,25,8.20
2017,11,14,20,26,8.20
2017,11,14,20,27,8.20
2017,11,14,20,28,8.20
2017,11,14,20,29,8.20
2017,11,14,20,30,8.20
2017,11,14,20,31,8.20
2017,11,14,20,32,8.20
2017,11,14,20,33,8.20
2017,11,14,20,34,8.20
2017,11,14,20,35,8.30
2017,11,14,20,36,8.30
2017,11,14,20,37,8.30
2017,11,14,20,38,8.40
2017,11,14,20,39,8.40
2017,11,14,20,40,8.50
2017,11,14,20,41,8.50
2017,11,14,20,42,8.50
2017,11,14,20,43,8.50
2017,11,14,20,44,8.60
2017,11,14,20,45,8.60
2017,11,14,20,46,8.60
2017,11,14,20,47,8.60
2017,11,14,20,48,8.70
2017,11,14,20,49,8.70
2017,11,14,20,50,8.70
2017,11,14,20,51,8.70
2017,11,14,20,52,8.70
2017,11,14,20,53,8.70
2017,11,14,20,54,8.70
2017,11,14,20,55,8.70
2017,11,14,20,56,8.70
2017,11,14,20,57,8.60
2017,11,14,20,58,8.60
2017,11,14,20,59,8.60
2017,11,14,21,00,8.60
2017,11,14,21,01,8.60
2017,11,14,21,02,8.60
2017,11,14,21,03,8.60
2017,11,14,21,04,8.60
2017,11,14,21,05,8.60
2017,11,14,21,06,8.60
2017,11,14,21,07,8.60
2017,11,14,21,08,8.60
2017,11,14,21,09,8.70
2017,11,14,21,10,8.70
2017,11,14,21,11,8.70
2017,11,14,21,12,8.70
2017,11,14,21,13,8.70
2017,11,14,21,14,8.70
2017,11,14,21,15,8.70
2017,11,14,21,16,8.70
2017,11,14,21,17,8.70
2017,11,14,21,18,8.80
2017,11,14,21,19,8.80
2017,11,14,21,20,8.80
2017,11,14,21,21,8.80
2017,11,14,21,22,8.80
2017,11,14,21,23,8.80
2017,11,14,21,24,8.80
2017,11,14,21,25,8.80
2017,11,14,21,26,8.80
2017,11,14,21,27,8.80
2017,11,14,21,28,8.70
2017,11,14,21,29,8.70
2017,11,14,21,30,8.70
2017,11,14,21,31,8.70
2017,11,14,21,32,8.70
2017,11,14,21,33,8.70
2017,11,14,21,34,8.70
2017,11,14,21,35,8.60
2017,11,14,21,36,8.50
2017,11,14,21,37,8.50
2017,11,14,21,38,8.50
2017,11,14,21,39,8.40
2017,11,14,21,40,8.40
2017,11,14,21,41,8.30
2017,11,14,21,42,8.30
2017,11,14,21,43,8.20
2017,11,14,21,44,8.20
2017,11,14,21,45,8.20
2017,11,14,21,46,8.20
2017,11,14,21,47,8.20
2017,11,14,21,48,8.20
2017,11,14,21,49,8.20
2017,11,14,21,50,8.20
2017,11,14,21,51,8.20
2017,11,14,21,52,8.20
2017,11,14,21,53,8.20
2017,11,14,21,54,8.20
2017,11,14,21,55,8.20
2017,11,14,21,56,8.10
2017,11,14,21,57,8.10
2017,11,14,21,58,8.10
2017,11,14,21,59,8.10
2017,11,14,22,00,8.10
2017,11,14,22,01,8.10
2017,11,14,22,02,8.10
2017,11,14,22,03,8.10
2017,11,14,22,04,8.10
2017,11,14,22,05,8.10
2017,11,14,22,06,8.20
2017,11,14,22,07,8.20
2017,11,14,22,08,8.20
2017,11,14,22,09,8.20
2017,11,14,22,10,8.20
2017,11,14,22,11,8.20
2017,11,14,22,12,8.20
2017,11,14,22,13,8.20
2017,11,14,22,14,8.20
2017,11,14,22,15,8.20
2017,11,14,22,16,8.20
2017,11,14,22,17,8.20
2017,11,14,22,18,8.20
2017,11,14,22,19,8.20
2017,11,14,22,20,8.20
2017,11,14,22,21,8.20
2017,11,14,22,22,8.20
2017,11,14,22,23,8.20
2017,11,14,22,24,8.20
2017,11,14,22,25,8.20
2017,11,14,22,26,8.20
2017,11,14,22,27,8.20
2017,11,14,22,28,8.20
2017,11,14,22,29,8.20
2017,11,14,22,30,8.20
2017,11,14,22,31,8.20
2017,11,14,22,32,8.20
2017,11,14,22,33,8.20
2017,11,14,22,34,8.20
2017,11,14,22,35,8.20
2017,11,14,22,36,8.20
2017,11,14,22,37,8.20
2017,11,14,22,38,8.20
2017,11,14,22,39,8.20
2017,11,14,22,40,8.20
2017,11,14,22,41,8.20
2017,11,14,22,42,8.20
2017,11,14,22,43,8.20
2017,11,14,22,44,8.20
2017,11,14,22,45,8.20
2017,11,14,22,46,8.20
2017,11,14,22,47,8.20
2017,11,14,22,48,8.20
2017,11,14,22,49,8.20
2017,11,14,22,50,8.20
2017,11,14,22,51,8.20
2017,11,14,22,52,8.20
2017,11,14,22,53,8.20
2017,11,14,22,54,8.20
2017,11,14,22,55,8.20
2017,11,14,22,56,8.20
2017,11,14,22,57,8.20
2017,11,14,22,58,8.20
2017,11,14,22,59,8.20
2017,11,14,23,00,8.20
2017,11,14,23,01,8.20
2017,11,14,23,02,8.20
2017,11,14,23,03,8.20
2017,11,14,23,04,8.20
2017,11,14,23,05,8.20
2017,11,14,23,06,8.20
2017,11,14,23,07,8.20
2017,11,14,23,08,8.20
2017,11,14,23,09,8.20
2017,11,14,23,10,8.20
2017,11,14,23,11,8.20
2017,11,14,23,12,8.20
2017,11,14,23,13,8.20
2017,11,14,23,14,8.20
2017,11,14,23,15,8.20
2017,11,14,23,16,8.20
2017,11,14,23,17,8.20
2017,11,14,23,18,8.20
2017,11,14,23,19,8.20
2017,11,14,23,20,8.20
2017,11,14,23,21,8.10
2017,11,14,23,22,8.10
2017,11,14,23,23,8.10
2017,11,14,23,24,8.10
2017,11,14,23,25,8.10
2017,11,14,23,26,8.10
2017,11,14,23,27,8.10
2017,11,14,23,28,8.10
2017,11,14,23,29,8.10
2017,11,14,23,30,8.10
2017,11,14,23,31,8.10
2017,11,14,23,32,8.10
2017,11,14,23,33,8.10
2017,11,14,23,34,8.10
2017,11,14,23,35,8.10
2017,11,14,23,36,8.10
2017,11,14,23,37,8.10
2017,11,14,23,38,8.10
2017,11,14,23,39,8.10
2017,11,14,23,40,8.10
2017,11,14,23,41,8.20
2017,11,14,23,42,8.20
2017,11,14,23,43,8.20
2017,11,14,23,44,8.20
2017,11,14,23,45,8.20
2017,11,14,23,46,8.10
2017,11,14,23,47,8.10
2017,11,14,23,48,8.10
2017,11,14,23,49,8.10
2017,11,14,23,50,8.10
2017,11,14,23,51,8.10
2017,11,14,23,52,8.10
2017,11,14,23,53,8.10
2017,11,14,23,54,8.00
2017,11,14,23,55,8.00
2017,11,14,23,56,8.00
2017,11,14,23,57,8.00
2017,11,14,23,58,8.00
2017,11,14,23,59,8.00
